EW6895 Weather Reports


Display with metric or nautical units.
time (UTC)temp
F
wind
direction
speed
MPH
gust
MPH
rain 1hr
in
rain 24hr
in
rain mn
in
humidity
%
barometer
mb
20181115205550 63 193 5.0 10.0 0.00 0.00 0.00 38 1019.5
20181115205044 63 166 4.0 10.0 0.00 0.00 0.00 38 1019.4
20181115204537 63 176 4.0 9.0 0.00 0.00 0.00 37 1019.4
20181115204028 63 213 4.0 12.0 0.00 0.00 0.00 37 1019.5
20181115203601 63 246 6.0 12.0 0.00 0.00 0.00 37 1019.6
20181115203052 63 184 5.0 11.0 0.00 0.00 0.00 37 1019.6
20181115202530 63 175 4.0 8.0 0.00 0.00 0.00 38 1019.6
20181115202103 63 171 4.0 9.0 0.00 0.00 0.00 37 1019.6
20181115201554 62 240 6.0 10.0 0.00 0.00 0.00 37 1019.7
20181115201047 62 209 4.0 9.0 0.00 0.00 0.00 38 1019.7
20181115200541 62 167 5.0 11.0 0.00 0.00 0.00 38 1019.7
20181115200034 62 194 6.0 11.0 0.00 0.00 0.00 37 1019.7
20181115195527 61 199 5.0 11.0 0.00 0.00 0.00 38 1019.8
20181115195101 61 192 5.0 10.0 0.00 0.00 0.00 38 1019.9
20181115194538 61 176 5.0 12.0 0.00 0.00 0.00 37 1019.9
20181115194032 61 233 6.0 12.0 0.00 0.00 0.00 38 1019.9
20181115193525 61 217 5.0 11.0 0.00 0.00 0.00 39 1020.1
20181115193059 61 178 4.0 11.0 0.00 0.00 0.00 38 1020.1
20181115192552 61 185 5.0 10.0 0.00 0.00 0.00 39 1020.2
20181115192045 61 163 4.0 11.0 0.00 0.00 0.00 39 1020.2
20181115191538 60 168 6.0 11.0 0.00 0.00 0.00 38 1020.3
20181115191015 60 190 5.0 10.0 0.00 0.00 0.00 38 1020.5
20181115190548 60 225 4.0 8.0 0.00 0.00 0.00 38 1020.6
20181115190043 60 220 3.0 8.0 0.00 0.00 0.00 40 1020.6
20181115185536 60 198 5.0 9.0 0.00 0.00 0.00 38 1020.7
20181115185028 60 208 3.0 8.0 0.00 0.00 0.00 39 1020.9
20181115184602 60 218 5.0 8.0 0.00 0.00 0.00 38 1021.0
20181115184054 59 163 2.0 8.0 0.00 0.00 0.00 41 1021.2
20181115183544 59 161 4.0 11.0 0.00 0.00 0.00 40 1021.4
20181115183021 59 209 5.0 11.0 0.00 0.00 0.00 39 1021.5
20181115182555 58 176 5.0 8.0 0.00 0.00 0.00 41 1021.6
20181115182049 58 225 4.0 9.0 0.00 0.00 0.00 41 1021.8
20181115181542 58 180 5.0 10.0 0.00 0.00 0.00 41 1021.9
20181115181035 58 159 5.0 10.0 0.00 0.00 0.00 43 1022.0
20181115180528 57 151 3.0 8.0 0.00 0.00 0.00 43 1022.1
20181115180102 57 236 3.0 10.0 0.00 0.00 0.00 42 1022.3
20181115175555 57 182 4.0 10.0 0.00 0.00 0.00 43 1022.4
20181115175032 57 152 4.0 10.0 0.00 0.00 0.00 43 1022.6
20181115174606 57 157 4.0 10.0 0.00 0.00 0.00 43 1022.6
20181115174059 56 138 6.0 10.0 0.00 0.00 0.00 43 1022.8
20181115173551 56 151 3.0 7.0 0.00 0.00 0.00 45 1022.9
20181115173042 56 227 3.0 6.0 0.00 0.00 0.00 43 1023.0
20181115172536 55 151 3.0 6.0 0.00 0.00 0.00 44 1023.0
20181115172029 55 201 2.0 6.0 0.00 0.00 0.00 45 1023.1
20181115171603 54 225 3.0 8.0 0.00 0.00 0.00 45 1023.2
20181115171041 54 171 4.0 9.0 0.00 0.00 0.00 45 1023.3
20181115170534 54 180 3.0 10.0 0.00 0.00 0.00 47 1023.3
20181115170027 53 151 1.0 5.0 0.00 0.00 0.00 47 1023.4
20181115165520 53 185 3.0 7.0 0.00 0.00 0.00 47 1023.4
20181115165011 52 180 4.0 7.0 0.00 0.00 0.00 46 1023.5
20181115164605 52 201 3.0 6.0 0.00 0.00 0.00 48 1023.6
20181115164059 51 234 3.0 7.0 0.00 0.00 0.00 48 1023.7
20181115163551 51 188 4.0 7.0 0.00 0.00 0.00 48 1023.8
20181115163029 50 221 3.0 9.0 0.00 0.00 0.00 50 1023.8
20181115162602 50 235 5.0 9.0 0.00 0.00 0.00 49 1023.9
20181115162056 49 221 2.0 8.0 0.00 0.00 0.00 51 1024.0
20181115161549 49 223 4.0 8.0 0.00 0.00 0.00 50 1024.0
20181115161041 49 216 4.0 8.0 0.00 0.00 0.00 50 1024.1
20181115160535 49 236 5.0 8.0 0.00 0.00 0.00 50 1024.1
20181115160026 48 186 3.0 6.0 0.00 0.00 0.00 54 1024.1
20181115155600 48 225 1.0 5.0 0.00 0.00 0.00 55 1024.2
20181115155038 47 227 2.0 8.0 0.00 0.00 0.00 56 1024.3
20181115154531 47 237 4.0 8.0 0.00 0.00 0.00 56 1024.3
20181115154025 46 206 2.0 7.0 0.00 0.00 0.00 58 1024.4
20181115153559 46 203 4.0 7.0 0.00 0.00 0.00 59 1024.3
20181115153053 45 188 4.0 6.0 0.00 0.00 0.00 61 1024.4
20181115152546 44 210 4.0 7.0 0.00 0.00 0.00 61 1024.4
20181115152040 44 223 4.0 7.0 0.00 0.00 0.00 63 1024.4
20181115151518 43 190 4.0 6.0 0.00 0.00 0.00 65 1024.3
20181115151052 42 196 3.0 5.0 0.00 0.00 0.00 69 1024.4
20181115150545 41 215 3.0 7.0 0.00 0.00 0.00 71 1024.4
20181115150038 40 192 3.0 7.0 0.00 0.00 0.00 72 1024.4
20181115145532 39 188 4.0 7.0 0.00 0.00 0.00 73 1024.4
20181115145026 38 181 3.0 6.0 0.00 0.00 0.00 76 1024.3
20181115144600 37 180 2.0 6.0 0.00 0.00 0.00 77 1024.4
20181115144053 36 190 4.0 6.0 0.00 0.00 0.00 79 1024.4
20181115143530 36 190 3.0 5.0 0.00 0.00 0.00 80 1024.3
20181115143104 35 189 4.0 6.0 0.00 0.00 0.00 81 1024.3
20181115142558 35 188 3.0 6.0 0.00 0.00 0.00 82 1024.4
20181115142052 34 193 2.0 4.0 0.00 0.00 0.00 83 1024.4
20181115141545 34 192 3.0 4.0 0.00 0.00 0.00 84 1024.4
20181115141039 33 195 1.0 3.0 0.00 0.00 0.00 85 1024.4
20181115140534 33 195 1.0 3.0 0.00 0.00 0.00 85 1024.3
20181115140011 33 196 2.0 4.0 0.00 0.00 0.00 86 1024.4
20181115135544 32 195 1.0 4.0 0.00 0.00 0.00 87 1024.3
20181115135038 32 259 2.0 3.0 0.00 0.00 0.00 87 1024.3
20181115134532 31 259 1.0 3.0 0.00 0.00 0.00 88 1024.4
20181115134025 31 260 1.0 3.0 0.00 0.00 0.00 88 1024.3
20181115133517 31 264 0.0 2.0 0.00 0.00 0.00 88 1024.4
20181115133013 31 264 1.0 2.0 0.00 0.00 0.00 88 1024.4
20181115132512 31 264 1.0 2.0 0.00 0.00 0.00 87 1024.4
20181115132029 31 264 1.0 2.0 0.00 0.00 0.00 87 1024.4
20181115131526 31 264 0.0 2.0 0.00 0.00 0.00 88 1024.3
20181115131022 30 264 1.0 2.0 0.00 0.00 0.00 88 1024.3
20181115130519 30 264 0.0 3.0 0.00 0.00 0.00 88 1024.3
20181115130026 30 264 1.0 3.0 0.00 0.00 0.00 88 1024.3
20181115125550 30 264 0.0 0.0 0.00 0.00 0.00 88 1024.3
20181115125044 30 264 0.0 0.0 0.00 0.00 0.00 87 1024.2
20181115124519 30 264 0.0 0.0 0.00 0.00 0.00 87 1024.2
20181115124054 30 264 0.0 0.0 0.00 0.00 0.00 87 1024.1
20181115123548 30 264 0.0 0.0 0.00 0.00 0.00 86 1024.2
20181115123043 30 264 0.0 0.0 0.00 0.00 0.00 86 1024.1
20181115122536 30 264 0.0 0.0 0.00 0.00 0.00 85 1024.2
20181115122028 31 264 0.0 0.0 0.00 0.00 0.00 85 1024.3
20181115121559 31 264 0.0 0.0 0.00 0.00 0.00 84 1024.3
20181115121052 31 264 0.0 0.0 0.00 0.00 0.00 84 1024.4
20181115120525 31 264 0.0 0.0 0.00 0.00 0.00 84 1024.4
20181115120019 31 264 0.0 0.0 0.00 0.00 0.00 84 1024.4
20181115115513 31 264 0.0 0.0 0.00 0.00 0.00 84 1024.4
20181115115105 31 264 0.0 0.0 0.00 0.00 0.00 84 1024.3
20181115114559 31 264 0.0 0.0 0.00 0.00 0.00 84 1024.2
20181115114053 31 264 0.0 0.0 0.00 0.00 0.00 83 1024.2
20181115113546 31 264 0.0 0.0 0.00 0.00 0.00 83 1024.1
20181115113024 31 264 0.0 0.0 0.00 0.00 0.00 83 1024.2
20181115112518 31 264 0.0 0.0 0.00 0.00 0.00 83 1024.1
20181115112011 31 264 0.0 1.0 0.00 0.00 0.00 84 1024.2
20181115111605 31 264 0.0 1.0 0.00 0.00 0.00 84 1024.2
20181115111056 31 264 1.0 1.0 0.00 0.00 0.00 85 1024.2
20181115110549 31 264 1.0 2.0 0.00 0.00 0.00 85 1024.2
20181115110043 31 264 1.0 2.0 0.00 0.00 0.00 85 1024.2
20181115105537 31 264 1.0 2.0 0.00 0.00 0.00 84 1024.1
20181115105014 31 264 0.0 0.0 0.00 0.00 0.00 84 1024.2
20181115104548 31 264 0.0 0.0 0.00 0.00 0.00 84 1024.2
20181115104042 31 264 0.0 0.0 0.00 0.00 0.00 83 1024.1
20181115103536 31 264 0.0 2.0 0.00 0.00 0.00 82 1024.3
20181115103029 32 264 0.0 2.0 0.00 0.00 0.00 82 1024.3
20181115102600 32 264 1.0 2.0 0.00 0.00 0.00 81 1024.3
20181115102054 32 264 2.0 2.0 0.00 0.00 0.00 80 1024.4
20181115101547 32 264 1.0 2.0 0.00 0.00 0.00 80 1024.3
20181115101025 33 264 1.0 3.0 0.00 0.00 0.00 79 1024.3
20181115100558 33 264 2.0 3.0 0.00 0.00 0.00 77 1024.5
20181115100050 33 264 2.0 3.0 0.00 0.00 0.00 77 1024.5
20181115095544 33 264 2.0 3.0 0.00 0.00 0.00 76 1024.5
20181115095037 33 264 2.0 3.0 0.00 0.00 0.00 76 1024.5
20181115094531 33 266 2.0 3.0 0.00 0.00 0.00 75 1024.5
20181115094025 33 267 2.0 3.0 0.00 0.00 0.00 76 1024.5
20181115093559 33 267 0.0 0.0 0.00 0.00 0.00 77 1024.7
20181115093036 32 267 0.0 0.0 0.00 0.00 0.00 78 1024.6
20181115092530 32 267 0.0 0.0 0.00 0.00 0.00 77 1024.7
20181115092103 32 267 0.0 0.0 0.00 0.00 0.00 78 1024.8
20181115091557 32 267 0.0 0.0 0.00 0.00 0.00 79 1024.7
20181115091050 32 267 0.0 0.0 0.00 0.00 0.00 79 1024.7
20181115090543 32 267 0.0 0.0 0.00 0.00 0.00 78 1024.7
20181115090037 32 267 0.0 0.0 0.00 0.00 0.00 79 1024.7
20181115085515 32 267 0.0 0.0 0.00 0.00 0.00 80 1024.8
20181115085049 32 267 0.0 0.0 0.00 0.00 0.00 81 1024.8
20181115084543 32 267 0.0 0.0 0.00 0.00 0.00 80 1024.9
20181115084037 32 267 0.0 0.0 0.00 0.00 0.00 80 1025.0
20181115083530 32 267 0.0 0.0 0.00 0.00 0.00 80 1025.1
20181115083105 32 267 0.0 0.0 0.00 0.00 0.00 81 1025.0
20181115082557 32 267 0.0 0.0 0.00 0.00 0.00 80 1025.1
20181115082051 32 267 0.0 0.0 0.00 0.00 0.00 80 1025.1
20181115081529 32 267 0.0 0.0 0.00 0.00 0.00 81 1025.2
20181115081022 32 267 0.0 0.0 0.00 0.00 0.00 80 1025.2
20181115080516 32 267 0.0 0.0 0.00 0.00 0.00 81 1025.3
20181115080030 32 267 0.0 0.0 0.00 0.00 0.00 81 1025.3
20181115075522 32 267 0.0 0.0 0.00 0.00 0.00 82 1025.3
20181115075015 32 267 0.0 0.0 0.00 0.00 0.00 83 1025.4
20181115074511 31 267 0.0 0.0 0.00 0.00 0.00 84 1025.4
20181115074025 31 267 0.0 0.0 0.00 0.00 0.00 84 1025.4
20181115073517 31 267 0.0 0.0 0.00 0.00 0.00 83 1025.5
20181115073009 31 267 0.0 0.0 0.00 0.00 0.00 83 1025.5
20181115072523 31 267 0.0 0.0 0.00 0.00 0.00 82 1025.5
20181115072014 31 267 0.0 0.0 0.00 0.00 0.00 82 1025.6
20181115071528 31 267 0.0 0.0 0.00 0.00 0.00 82 1025.7
20181115071021 31 267 0.0 0.0 0.00 0.00 0.00 81 1025.7
20181115070517 31 267 0.0 0.0 0.00 0.00 0.00 80 1025.7
20181115070010 32 267 0.0 0.0 0.00 0.00 0.00 80 1025.8
20181115065523 32 267 0.0 0.0 0.00 0.00 0.00 79 1025.8
20181115065016 32 267 0.0 0.0 0.00 0.00 0.00 80 1025.9
20181115064529 32 267 0.0 0.0 0.00 0.00 0.00 79 1026.0
20181115064022 32 267 0.0 0.0 0.00 0.00 0.00 78 1025.9
20181115063515 33 267 0.0 0.0 0.00 0.00 0.00 77 1025.9
20181115063028 33 267 0.0 0.0 0.00 0.00 0.00 77 1026.0
20181115062524 33 267 0.0 0.0 0.00 0.00 0.00 78 1025.9
20181115062017 33 267 0.0 0.0 0.00 0.00 0.00 78 1025.9
20181115061510 33 267 0.0 0.0 0.00 0.00 0.00 78 1026.0
20181115061024 33 267 0.0 0.0 0.00 0.00 0.00 78 1026.0
20181115060517 33 267 0.0 0.0 0.00 0.00 0.00 78 1026.0
20181115060029 33 267 0.0 0.0 0.00 0.00 0.00 79 1026.0
20181115055604 34 267 0.0 0.0 0.00 0.00 0.00 77 1026.2
20181115055057 34 267 0.0 0.0 0.00 0.00 0.00 77 1026.2
20181115054551 34 267 0.0 0.0 0.00 0.00 0.00 77 1026.2
20181115054028 34 267 0.0 0.0 0.00 0.00 0.00 77 1026.4
20181115053603 34 267 0.0 0.0 0.00 0.00 0.00 76 1026.4
20181115053057 35 267 0.0 0.0 0.00 0.00 0.00 74 1026.4
20181115052551 35 267 0.0 0.0 0.00 0.00 0.00 74 1026.5
20181115052042 35 267 0.0 0.0 0.00 0.00 0.00 74 1026.5
20181115051536 34 267 0.0 0.0 0.00 0.00 0.00 75 1026.5
20181115051013 34 267 0.0 0.0 0.00 0.00 0.00 76 1026.5
20181115050604 34 267 0.0 0.0 0.00 0.00 0.00 78 1026.5
20181115050043 33 267 0.0 0.0 0.00 0.00 0.00 80 1026.6
20181115045535 33 267 0.0 0.0 0.00 0.00 0.00 82 1026.6
20181115045028 33 267 0.0 0.0 0.00 0.00 0.00 81 1026.5
20181115044602 33 267 0.0 0.0 0.00 0.00 0.00 80 1026.5
20181115044056 33 267 0.0 0.0 0.00 0.00 0.00 81 1026.6
20181115043550 33 267 0.0 0.0 0.00 0.00 0.00 81 1026.6
20181115043043 33 267 0.0 0.0 0.00 0.00 0.00 81 1026.6
20181115042521 33 267 0.0 0.0 0.00 0.00 0.00 81 1026.6
20181115042055 33 267 0.0 0.0 0.00 0.00 0.00 80 1026.7
20181115041549 33 342 0.0 0.0 0.00 0.00 0.00 78 1026.6
20181115041042 33 342 0.0 0.0 0.00 0.00 0.00 79 1026.7
20181115040535 34 342 0.0 0.0 0.00 0.00 0.00 80 1026.7
20181115040026 33 342 0.0 0.0 0.00 0.00 0.00 80 1026.8
20181115035600 33 342 0.0 0.0 0.00 0.00 0.00 79 1026.7
20181115035054 34 342 0.0 0.0 0.00 0.00 0.00 79 1026.8
20181115034532 34 342 0.0 0.0 0.00 0.00 0.00 80 1026.8
20181115034025 34 342 0.0 0.0 0.00 0.00 0.00 80 1026.9
20181115033520 34 342 0.0 0.0 0.00 0.00 0.00 78 1026.9
20181115033013 35 342 0.0 1.0 0.00 0.00 0.00 77 1026.9
20181115032604 35 342 0.0 1.0 0.00 0.00 0.00 76 1026.9
20181115032058 35 342 0.0 1.0 0.00 0.00 0.00 75 1026.8
20181115031549 35 342 0.0 2.0 0.00 0.00 0.00 75 1026.7
20181115031027 35 342 2.0 2.0 0.00 0.00 0.00 75 1026.8
20181115030600 35 342 0.0 2.0 0.00 0.00 0.00 76 1026.7
20181115030054 35 342 1.0 2.0 0.00 0.00 0.00 75 1026.8
20181115025547 35 345 0.0 2.0 0.00 0.00 0.00 76 1026.8
20181115025040 35 345 0.0 2.0 0.00 0.00 0.00 74 1026.7
20181115024534 35 345 0.0 2.0 0.00 0.00 0.00 76 1026.7
20181115024028 36 345 1.0 2.0 0.00 0.00 0.00 75 1026.8
20181115023603 36 346 0.0 0.0 0.00 0.00 0.00 73 1026.7
20181115023040 36 346 0.0 0.0 0.00 0.00 0.00 72 1026.7
20181115022533 36 346 0.0 0.0 0.00 0.00 0.00 72 1026.7
20181115022027 36 346 0.0 0.0 0.00 0.00 0.00 73 1026.7
20181115021601 36 346 0.0 0.0 0.00 0.00 0.00 73 1026.8
20181115021053 36 346 0.0 0.0 0.00 0.00 0.00 73 1026.8
20181115020549 36 346 0.0 0.0 0.00 0.00 0.00 72 1026.8
20181115020040 36 346 0.0 1.0 0.00 0.00 0.00 71 1026.9
20181115015518 36 346 0.0 1.0 0.00 0.00 0.00 70 1026.9
20181115015050 36 346 0.0 2.0 0.00 0.00 0.00 71 1027.0
20181115014544 36 346 1.0 2.0 0.00 0.00 0.00 70 1027.0
20181115014038 37 346 0.0 1.0 0.00 0.00 0.00 71 1026.9
20181115013532 37 346 0.0 2.0 0.00 0.00 0.00 70 1027.1
20181115013027 37 346 0.0 2.0 0.00 0.00 0.00 69 1027.0
20181115012558 37 346 1.0 2.0 0.00 0.00 0.00 68 1027.0
20181115012052 38 347 0.0 0.0 0.00 0.00 0.00 67 1027.1
20181115011529 38 347 0.0 0.0 0.00 0.00 0.00 66 1027.1
20181115011103 38 347 0.0 1.0 0.00 0.00 0.00 66 1027.0
20181115010557 38 347 0.0 1.0 0.00 0.00 0.00 65 1027.0
20181115010054 38 348 0.0 0.0 0.00 0.00 0.00 63 1026.9
20181115005550 39 348 0.0 0.0 0.00 0.00 0.00 64 1027.0
20181115005044 39 348 0.0 1.0 0.00 0.00 0.00 63 1027.0
20181115004541 40 348 1.0 1.0 0.00 0.00 0.00 63 1026.8
20181115004022 40 347 0.0 1.0 0.00 0.00 0.00 61 1026.9
20181115003559 41 347 1.0 1.0 0.00 0.00 0.00 59 1026.9
20181115003056 41 348 0.0 1.0 0.00 0.00 0.00 56 1026.9
20181115002553 41 348 1.0 3.0 0.00 0.00 0.00 54 1026.9
20181115002049 42 347 1.0 3.0 0.00 0.00 0.00 53 1026.8
20181115001546 42 339 1.0 2.0 0.00 0.00 0.00 52 1027.0
20181115001044 42 339 0.0 2.0 0.00 0.00 0.00 52 1027.0
20181115000524 43 339 0.0 2.0 0.00 0.00 0.00 50 1027.1
20181115000102 43 342 0.0 3.0 0.00 0.00 0.00 49 1027.1
20181114235558 43 341 1.0 3.0 0.00 0.00 0.00 47 1027.0
20181114235055 43 342 2.0 5.0 0.00 0.00 0.00 47 1027.1
20181114234552 44 343 2.0 5.0 0.00 0.00 0.00 46 1027.1
20181114234043 44 344 2.0 4.0 0.00 0.00 0.00 45 1027.0
20181114233538 44 334 2.0 6.0 0.00 0.00 0.00 44 1027.1
20181114233016 44 354 2.0 6.0 0.00 0.00 0.00 43 1027.0
20181114232551 44 350 2.0 5.0 0.00 0.00 0.00 43 1027.0
20181114232044 45 341 2.0 9.0 0.00 0.00 0.00 42 1027.0
20181114231537 45 353 4.0 9.0 0.00 0.00 0.00 42 1027.1
20181114231031 45 342 4.0 8.0 0.00 0.00 0.00 42 1027.0
20181114230601 45 339 4.0 9.0 0.00 0.00 0.00 42 1027.0
20181114230053 45 347 5.0 9.0 0.00 0.00 0.00 41 1026.9
20181114225547 45 311 3.0 9.0 0.00 0.00 0.00 42 1027.1
20181114225024 45 330 5.0 8.0 0.00 0.00 0.00 41 1027.1
20181114224557 46 18 4.0 11.0 0.00 0.00 0.00 40 1027.1
20181114224051 46 59 4.0 11.0 0.00 0.00 0.00 40 1027.1
20181114223544 46 340 6.0 14.0 0.00 0.00 0.00 39 1027.0
20181114223039 46 354 8.0 14.0 0.00 0.00 0.00 38 1027.1
20181114222532 46 343 6.0 12.0 0.00 0.00 0.00 38 1027.1
20181114222025 46 7 7.0 12.0 0.00 0.00 0.00 38 1027.2
20181114221559 46 18 6.0 12.0 0.00 0.00 0.00 38 1027.1
20181114221034 46 332 5.0 12.0 0.00 0.00 0.00 38 1027.1
20181114220608 46 28 7.0 12.0 0.00 0.00 0.00 38 1027.2
20181114220156 46 336 5.0 10.0 0.00 0.00 0.00 36 1027.2
20181114215536 46 348 5.0 11.0 0.00 0.00 0.00 36 1027.2
20181114215029 46 329 7.0 11.0 0.00 0.00 0.00 36 1027.3
20181114214602 46 334 5.0 12.0 0.00 0.00 0.00 36 1027.3
20181114214055 46 327 7.0 14.0 0.00 0.00 0.00 36 1027.4
20181114213550 46 348 8.0 14.0 0.00 0.00 0.00 35 1027.3
20181114213025 46 346 4.0 13.0 0.00 0.00 0.00 37 1027.3
20181114212559 46 311 9.0 14.0 0.00 0.00 0.00 36 1027.4
20181114212052 46 13 9.0 15.0 0.00 0.00 0.00 36 1027.5
20181114211545 46 321 7.0 15.0 0.00 0.00 0.00 34 1027.5
20181114211039 46 358 7.0 12.0 0.00 0.00 0.00 36 1027.6
20181114210529 46 319 5.0 11.0 0.00 0.00 0.00 36 1027.6
20181114210103 46 18 7.0 13.0 0.00 0.00 0.00 36 1027.8